Danville, VA

10:29 AM EDT on June 24, 2017 (GMT -0400)
Danville Regional

Weather History for KDAN - December, 2011

Change the Weather History Date:

Saturday, December 31, 2011

  Actual Average Record
Temperature  
Mean Temperature 48 °F 38 °F  
Max Temperature 61 °F 47 °F 76 °F (1984)
Min Temperature 35 °F 29 °F 14 °F (1961)
Degree Days  
Heating Degree Days 17 27  
Month to date heating degree days 634 773  
Since 1 July heating degree days 1361 1482  
Cooling Degree Days 0 0  
Month to date cooling degree days 0 0  
Year to date cooling degree days 1564 1439  
Moisture  
Dew Point 40 °F    
Average Humidity 70    
Maximum Humidity 100    
Minimum Humidity 39    
Precipitation  
Precipitation T in 0.07 in 0.94 in (1952)
Month to date precipitation 2.19 3.27  
Year to date precipitation 39.01 44.41  
Snow  
Snow 0.00 in - - ()
Month to date snowfall 0.0  
Since 1 July snowfall 0.0  
Snow Depth 0.00 in    
Sea Level Pressure  
Sea Level Pressure 29.98 in    
Wind  
Wind Speed 5 mph (West)    
Max Wind Speed 18 mph    
Max Gust Speed 23 mph    
Visibility 10 miles    
Events Rain    
T = Trace of Precipitation, MM = Missing Value Source: NWS Daily Summary

Daily Weather History Graph

Daily Weather History Graph

Search for Another Location

Airport or City:

Trip Planner

Search our weather history database for the weather conditions in past years. The results will help you decide how hot, cold, wet, or windy it might be!

Date:

Astronomy

Dec. 31, 2011 Rise Set
Actual Time 7:29 AM EST 5:11 PM EST
Civil Twilight 7:00 AM EST 5:40 PM EST
Nautical Twilight 6:28 AM EST 6:12 PM EST
Astronomical Twilight 5:56 AM EST 6:43 PM EST
Moon 11:25 AM EST (12/31) No Moon Set
Length of Visible Light 10h 39m
Length of Day
9h 42m
Waxing Crescent, 45% of the Moon is Illuminated
Dec 31
Waxing Crescent
Jan 1
First Quarter
Jan 9
Full
Jan 16
Last Quarter
Jan 23
New

Hourly Weather History & Observations

Time (EST) Temp. Windchill Dew Point Humidity Pressure Visibility Wind Dir Wind Speed Gust Speed Precip Events Conditions
12:53 AM 55.0 °F - 44.1 °F 67% 29.88 in 10.0 mi SSW 5.8 mph - N/A   Overcast
1:53 AM 54.0 °F - 45.0 °F 72% 29.88 in 10.0 mi SSW 4.6 mph - N/A   Overcast
2:16 AM 53.6 °F - 44.6 °F 72% 29.90 in 10.0 mi Calm Calm - N/A   Overcast
2:53 AM 54.0 °F - 45.0 °F 72% 29.87 in 10.0 mi Calm Calm - N/A   Overcast
3:53 AM 53.1 °F - 46.9 °F 80% 29.88 in 10.0 mi WSW 5.8 mph - 0.00 in Rain Light Rain
4:53 AM 53.1 °F - 46.9 °F 80% 29.88 in 10.0 mi SW 4.6 mph - 0.00 in   Overcast
5:16 AM 51.8 °F - 46.4 °F 82% 29.89 in 10.0 mi SW 5.8 mph - N/A   Scattered Clouds
5:53 AM 48.2 °F - 44.6 °F 87% 29.89 in 10.0 mi WSW 4.6 mph - N/A   Clear
6:53 AM 44.1 °F 40.8 °F 42.1 °F 93% 29.90 in 10.0 mi WSW 5.8 mph - N/A   Clear
7:53 AM 42.1 °F 37.7 °F 42.1 °F 100% 29.93 in 10.0 mi SW 6.9 mph - N/A   Clear
8:53 AM 50.0 °F - 46.4 °F 87% 29.97 in 10.0 mi WSW 8.1 mph - N/A   Clear
9:53 AM 55.0 °F - 44.1 °F 67% 29.97 in 10.0 mi West 9.2 mph - N/A   Clear
10:53 AM 57.9 °F - 39.0 °F 49% 29.96 in 10.0 mi West 17.3 mph 20.7 mph N/A   Clear
11:53 AM 60.1 °F - 36.0 °F 41% 29.96 in 10.0 mi WNW 9.2 mph 21.9 mph N/A   Partly Cloudy
12:53 PM 59.0 °F - 36.0 °F 42% 29.96 in 10.0 mi WNW 9.2 mph - N/A   Partly Cloudy
1:53 PM 60.1 °F - 36.0 °F 41% 29.96 in 10.0 mi WNW 8.1 mph - N/A   Clear
2:53 PM 61.0 °F - 36.0 °F 39% 29.99 in 10.0 mi WNW 8.1 mph - N/A   Clear
3:53 PM 60.1 °F - 36.0 °F 41% 30.01 in 10.0 mi NNW 8.1 mph - N/A   Clear
4:53 PM 55.9 °F - 35.1 °F 45% 30.04 in 10.0 mi North 6.9 mph - N/A   Clear
5:53 PM 52.0 °F - 35.1 °F 53% 30.06 in 10.0 mi North 4.6 mph - N/A   Clear
6:53 PM 46.0 °F 44.8 °F 35.1 °F 66% 30.09 in 10.0 mi North 3.5 mph - N/A   Clear
7:53 PM 42.1 °F - 34.0 °F 73% 30.12 in 10.0 mi Calm Calm - N/A   Clear
8:53 PM 39.9 °F - 34.0 °F 79% 30.12 in 10.0 mi Calm Calm - N/A   Clear
9:53 PM 37.9 °F - 34.0 °F 86% 30.12 in 10.0 mi Calm Calm - N/A   Clear
10:53 PM 36.0 °F - 33.1 °F 89% 30.14 in 10.0 mi Calm Calm - N/A   Clear
11:53 PM 35.6 °F - 33.8 °F 93% 30.15 in 10.0 mi Calm Calm - N/A   Clear